Sigfox identifier Datetime Temperature Humidity SNR
003C48CD 2019-03-23 09:18:31 23.6 19 25
003C48CD 2019-03-23 08:45:53 23.6 20 24.9
003C48CD 2019-03-23 08:13:13 23.7 21 25
003C48CD 2019-03-23 07:40:35 23.8 22 25
003C48CD 2019-03-23 07:07:55 23.8 23 25.1
003C48CD 2019-03-23 06:35:15 23.9 24 25.1
003C48CD 2019-03-23 06:02:34 24.1 25 25.1
003C48CD 2019-03-23 05:29:55 24.2 26 25
003C48CD 2019-03-23 04:56:42 24.3 27 25.1
003C48CD 2019-03-23 04:24:05 24.4 29 25.1
003C48CD 2019-03-23 03:51:28 24.4 31 25.2
003C48CD 2019-03-23 03:18:47 24.4 32 25.2
003C48CD 2019-03-23 02:46:08 24.4 32 25.2
003C48CD 2019-03-23 02:13:29 24.3 32 25.1
003C48CD 2019-03-23 01:40:48 24.3 31 24.8
003C48CD 2019-03-23 01:08:10 24.3 31 24.9
003C48CD 2019-03-23 00:35:32 24.3 31 24.8
003C48CD 2019-03-23 00:02:51 24.2 30 24.8
003C48CD 2019-03-22 23:30:12 24.2 29 24.7
003C48CD 2019-03-22 22:57:34 24.2 25 24.7
003C48CD 2019-03-22 22:24:55 24.1 23 24.7
003C48CD 2019-03-22 21:52:17 24.1 25 24.6
003C48CD 2019-03-22 21:19:38 24.1 25 24.5
003C48CD 2019-03-22 20:47:00 24.1 26 24.3
003C48CD 2019-03-22 20:14:19 24.2 25 24.4
003C48CD 2019-03-22 19:41:38 24.2 27 24.3
003C48CD 2019-03-22 19:08:56 24.2 26 24.3
003C48CD 2019-03-22 18:36:17 24.1 25 24.3
003C48CD 2019-03-22 18:03:37 24.1 22 24.4
003C48CD 2019-03-22 17:30:56 24 16 24.3
003C48CD 2019-03-22 16:58:13 23.9 16 24.3
003C48CD 2019-03-22 16:25:33 23.8 17 24.4
003C48CD 2019-03-22 15:52:55 23.7 18 24.5
003C48CD 2019-03-22 15:20:14 23.6 20 24.4
003C48CD 2019-03-22 14:47:35 23.5 16 24.3
003C48CD 2019-03-22 14:14:55 23.4 16 24.2
003C48CD 2019-03-22 13:42:17 23.4 16 24.2
003C48CD 2019-03-22 13:09:37 23.5 16 24.4
003C48CD 2019-03-22 12:37:01 23.5 16 24.3
003C48CD 2019-03-22 12:04:23 23.5 16 24.3
003C48CD 2019-03-22 11:31:42 23.5 17 24.4
003C48CD 2019-03-22 10:59:00 23.5 17 24.4
003C48CD 2019-03-22 10:26:23 23.5 17 24.4
003C48CD 2019-03-22 09:53:46 23.5 17 24.5
003C48CD 2019-03-22 09:21:11 23.5 17 24.8
003C48CD 2019-03-22 08:48:33 23.5 18 24.7
003C48CD 2019-03-22 08:15:54 23.5 18 24.8
003C48CD 2019-03-22 07:43:12 23.6 18 24.8
003C48CD 2019-03-22 07:10:34 23.6 18 24.8
003C48CD 2019-03-22 06:37:54 23.6 18 24.7
003C48CD 2019-03-22 06:05:13 23.7 18 24.8
003C48CD 2019-03-22 05:32:35 23.8 18 24.8
003C48CD 2019-03-22 04:59:53 23.9 18 24.8
003C48CD 2019-03-22 04:27:12 24.1 18 24.7
003C48CD 2019-03-22 03:54:30 24.2 18 24.9
003C48CD 2019-03-22 03:21:49 24.4 19 24.8
003C48CD 2019-03-22 02:49:08 24.4 22 24.8
003C48CD 2019-03-22 02:16:29 24.4 22 24.9
003C48CD 2019-03-22 01:43:17 24.4 23 25.1
003C48CD 2019-03-22 01:10:40 24.5 25 25.2
003C48CD 2019-03-22 00:38:01 24.4 28 25.1
003C48CD 2019-03-22 00:05:22 24.5 24 25.1
003C48CD 2019-03-21 23:32:41 24.5 25 25.1
003C48CD 2019-03-21 22:59:59 24.5 26 25
003C48CD 2019-03-21 22:27:19 24.5 26 24.9
003C48CD 2019-03-21 21:54:38 24.5 26 24.9
003C48CD 2019-03-21 21:21:59 24.5 26 24.9
003C48CD 2019-03-21 20:49:18 24.5 26 24.9
003C48CD 2019-03-21 20:16:37 24.5 26 24.7
003C48CD 2019-03-21 19:43:56 24.5 26 24.8
003C48CD 2019-03-21 19:11:17 24.5 26 24.9
003C48CD 2019-03-21 18:38:37 24.5 25 25
003C48CD 2019-03-21 18:05:57 24.5 26 25
003C48CD 2019-03-21 17:33:15 24.5 27 25
003C48CD 2019-03-21 17:00:37 24.4 27 25
003C48CD 2019-03-21 16:27:55 24.3 25 25.1
003C48CD 2019-03-21 15:55:15 24.2 26 25.1
003C48CD 2019-03-21 15:22:34 24.2 27 25.1
003C48CD 2019-03-21 14:49:55 24.2 28 25
003C48CD 2019-03-21 14:17:14 24.1 25 25
003C48CD 2019-03-21 13:44:35 24.1 23 25
003C48CD 2019-03-21 13:11:55 24.1 23 24.9
003C48CD 2019-03-21 12:39:14 24.1 23 24.8
003C48CD 2019-03-21 12:06:32 24.2 23 24.7
003C48CD 2019-03-21 11:33:51 24.2 22 24.7
003C48CD 2019-03-21 11:01:13 24.2 22 24.8
003C48CD 2019-03-21 10:28:33 24.2 22 24.7
003C48CD 2019-03-21 09:55:51 24.2 23 24.8
003C48CD 2019-03-21 09:23:12 24.2 22 24.8
003C48CD 2019-03-21 08:50:30 24.3 23 24.9
003C48CD 2019-03-21 08:17:52 24.3 21 24.9
003C48CD 2019-03-21 07:45:12 24.3 21 24.9
003C48CD 2019-03-21 07:12:33 24.3 21 24.8
003C48CD 2019-03-21 06:39:52 24.4 21 24.7
003C48CD 2019-03-21 06:07:13 24.5 21 24.5
003C48CD 2019-03-21 05:34:33 24.5 21 24.4
003C48CD 2019-03-21 05:01:54 24.5 21 24.4
003C48CD 2019-03-21 04:29:12 24.6 22 24.4
003C48CD 2019-03-21 03:56:30 24.6 22 24.4
003C48CD 2019-03-21 03:23:51 24.6 22 24.2
003C48CD 2019-03-21 02:51:09 24.7 22 24.1
003C48CD 2019-03-21 02:18:28 24.7 22 24.1
003C48CD 2019-03-21 01:45:49 24.8 22 24.2
003C48CD 2019-03-21 01:13:09 24.9 22 24.2
003C48CD 2019-03-21 00:40:26 25.1 22 24.2
003C48CD 2019-03-21 00:07:44 25.2 23 24.2
003C48CD 2019-03-20 23:35:03 25.4 24 24.2
003C48CD 2019-03-20 23:02:26 25.1 25 24.2
003C48CD 2019-03-20 22:29:13 24.5 24 24.2
003C48CD 2019-03-20 21:56:34 24.2 23 24.1
003C48CD 2019-03-20 21:23:52 24.2 23 24
003C48CD 2019-03-20 20:51:12 24.1 24 24
003C48CD 2019-03-20 20:18:35 24.1 24 23.9
003C48CD 2019-03-20 19:45:56 24 24 23.8
003C48CD 2019-03-20 19:13:15 24 24 23.7
003C48CD 2019-03-20 18:40:34 23.9 24 23.9
003C48CD 2019-03-20 18:07:51 23.8 24 24
003C48CD 2019-03-20 17:35:12 23.7 24 24
003C48CD 2019-03-20 17:02:36 23.6 24 24.1
003C48CD 2019-03-20 16:29:53 23.5 24 24.3
003C48CD 2019-03-20 15:57:12 23.5 23 24.2
003C48CD 2019-03-20 15:24:34 23.5 22 24.3
003C48CD 2019-03-20 14:51:57 23.6 21 24.3
003C48CD 2019-03-20 14:19:16 23.6 22 24.3
003C48CD 2019-03-20 13:46:32 23.7 24 24.3
003C48CD 2019-03-20 13:13:49 23.6 26 24.2
003C48CD 2019-03-20 12:41:08 23.5 27 24.1
003C48CD 2019-03-20 12:08:29 23.4 24 24.1
003C48CD 2019-03-20 11:35:49 23.4 23 24.2
003C48CD 2019-03-20 11:03:08 23.4 22 24.1
003C48CD 2019-03-20 10:30:27 23.4 22 24.2
003C48CD 2019-03-20 09:57:47 23.5 23 24.2
003C48CD 2019-03-20 09:25:06 23.5 24 24.3
003C48CD 2019-03-20 08:52:25 23.5 25 24.2
003C48CD 2019-03-20 08:19:46 23.6 26 24.2
003C48CD 2019-03-20 07:47:07 23.6 27 24.2
003C48CD 2019-03-20 07:14:28 23.7 28 24.2
003C48CD 2019-03-20 06:41:48 23.8 29 24.2
003C48CD 2019-03-20 06:09:09 23.9 29 24.2
003C48CD 2019-03-20 05:36:30 24 29 24.2
003C48CD 2019-03-20 05:03:50 24.1 29 24.1
003C48CD 2019-03-20 04:31:09 24.3 29 24.1
003C48CD 2019-03-20 03:58:30 24.4 30 24.3
003C48CD 2019-03-20 03:25:51 24.4 31 24.3
003C48CD 2019-03-20 02:53:11 24.4 31 24.2
003C48CD 2019-03-20 02:20:33 24.4 31 24.1
003C48CD 2019-03-20 01:47:54 24.4 32 24
003C48CD 2019-03-20 01:15:17 24.4 32 24
003C48CD 2019-03-20 00:42:42 24.4 32 24
003C48CD 2019-03-20 00:10:03 24.4 30 24
003C48CD 2019-03-19 23:37:27 24.4 26 24.1
003C48CD 2019-03-19 23:04:48 24.4 25 24.1
003C48CD 2019-03-19 22:32:13 24.4 25 24
003C48CD 2019-03-19 21:59:35 24.3 25 24
003C48CD 2019-03-19 21:26:55 24.3 25 24
003C48CD 2019-03-19 20:54:16 24.3 25 24
003C48CD 2019-03-19 20:21:36 24.3 25 24.1
003C48CD 2019-03-19 19:48:59 24.3 26 24
003C48CD 2019-03-19 19:15:45 24.3 25 24.1
003C48CD 2019-03-19 18:43:04 24.3 25 24
003C48CD 2019-03-19 18:10:24 24.3 26 24.1
003C48CD 2019-03-19 17:37:46 24.3 26 24
003C48CD 2019-03-19 17:05:06 24.2 27 24.1
003C48CD 2019-03-19 16:32:23 24.2 28 24.2
003C48CD 2019-03-19 15:59:45 24.1 27 24.2
003C48CD 2019-03-19 15:27:02 24 25 24.1
003C48CD 2019-03-19 14:54:21 24 25 24
003C48CD 2019-03-19 14:21:39 23.9 25 24
003C48CD 2019-03-19 13:48:57 23.9 25 24
003C48CD 2019-03-19 13:16:17 23.8 25 24.1
003C48CD 2019-03-19 12:43:37 23.8 25 24
003C48CD 2019-03-19 12:10:56 23.7 26 24
003C48CD 2019-03-19 11:38:12 23.6 26 24.2
003C48CD 2019-03-19 11:05:32 23.5 28 24.2
003C48CD 2019-03-19 10:32:54 23.4 28 24.4
003C48CD 2019-03-19 10:00:12 23.3 29 24.3
003C48CD 2019-03-19 09:27:36 23.3 25 24.4
003C48CD 2019-03-19 08:54:55 23.3 25 24.9
003C48CD 2019-03-19 08:22:17 23.3 25 24.9
003C48CD 2019-03-19 07:49:39 23.4 26 24.9
003C48CD 2019-03-19 07:17:01 23.4 25 24.9
003C48CD 2019-03-19 06:44:22 23.4 25 24.9
003C48CD 2019-03-19 06:11:40 23.4 25 24.9
003C48CD 2019-03-19 05:38:59 23.5 25 24.9
003C48CD 2019-03-19 05:06:18 23.5 24 24.9
003C48CD 2019-03-19 04:33:38 23.6 25 25
003C48CD 2019-03-19 04:00:59 23.6 25 25
003C48CD 2019-03-19 03:28:17 23.7 25 25.1
003C48CD 2019-03-19 02:55:35 23.8 25 25.1
003C48CD 2019-03-19 02:22:55 23.9 25 25.1
003C48CD 2019-03-19 01:50:14 23.9 25 25
003C48CD 2019-03-19 01:17:35 24.1 24 25
003C48CD 2019-03-19 00:44:56 24.1 24 24.9
003C48CD 2019-03-19 00:12:16 24.2 24 24.9
003C48CD 2019-03-18 23:39:34 24.2 24 24.9
003C48CD 2019-03-18 23:06:55 24.2 24 24.9
003C48CD 2019-03-18 22:34:12 24.1 24 24.9
003C48CD 2019-03-18 22:01:30 24.1 25 24.9
003C48CD 2019-03-18 21:28:46 24.1 24 24.9
003C48CD 2019-03-18 20:56:04 24 24 24.7
003C48CD 2019-03-18 20:23:26 23.9 25 24.7
003C48CD 2019-03-18 19:50:47 23.8 26 24.7
003C48CD 2019-03-18 19:18:08 23.6 27 24.3
003C48CD 2019-03-18 18:45:27 23.2 25 24.4
003C48CD 2019-03-18 18:12:46 23.2 23 24.5
003C48CD 2019-03-18 17:40:07 23.2 23 24.5
003C48CD 2019-03-18 17:07:28 23.3 23 24.5
003C48CD 2019-03-18 16:34:46 23.3 23 24.5
003C48CD 2019-03-18 16:01:34 23.3 23 24.7
003C48CD 2019-03-18 15:28:53 23.4 23 24.6
003C48CD 2019-03-18 14:56:11 23.4 23 24.6
003C48CD 2019-03-18 14:23:31 23.4 23 24.5
003C48CD 2019-03-18 13:50:53 23.5 23 24.5
003C48CD 2019-03-18 13:18:14 23.5 24 24.5
003C48CD 2019-03-18 12:45:32 23.6 24 24.6
003C48CD 2019-03-18 12:12:51 23.7 24 24.6
003C48CD 2019-03-18 11:40:13 23.7 25 24.7
003C48CD 2019-03-18 11:07:32 23.8 25 24.7
003C48CD 2019-03-18 10:34:51 23.7 27 24.7
003C48CD 2019-03-18 10:02:11 23.7 28 24.6
003C48CD 2019-03-18 09:29:36 23.7 24 24.6
003C48CD 2019-03-18 08:56:57 23.7 25 24.5
003C48CD 2019-03-18 08:24:19 23.8 25 24.6
003C48CD 2019-03-18 07:51:39 23.8 25 24.5
003C48CD 2019-03-18 07:19:01 23.9 25 24.6
003C48CD 2019-03-18 06:46:26 24 25 24.5
003C48CD 2019-03-18 06:13:45 24.1 25 24.5
003C48CD 2019-03-18 05:41:05 24.2 25 24.4
003C48CD 2019-03-18 05:08:25 24.4 25 24.2
003C48CD 2019-03-18 04:35:48 24.5 26 24.3
003C48CD 2019-03-18 04:03:10 24.6 26 24.1
003C48CD 2019-03-18 03:30:32 24.7 26 24.1
003C48CD 2019-03-18 02:57:52 24.7 26 24
003C48CD 2019-03-18 02:25:13 24.7 27 23.9
003C48CD 2019-03-18 01:52:35 24.7 27 23.8
003C48CD 2019-03-18 01:19:55 24.7 27 23.8
003C48CD 2019-03-18 00:47:15 24.7 25 23.9
003C48CD 2019-03-18 00:14:35 24.7 26 23.9
003C48CD 2019-03-17 23:41:56 24.7 25 23.9
003C48CD 2019-03-17 23:09:17 24.8 26 24.1
003C48CD 2019-03-17 22:36:39 24.9 26 24.2
003C48CD 2019-03-17 22:03:58 24.9 26 24.1
003C48CD 2019-03-17 21:31:21 24.9 25 24.1
003C48CD 2019-03-17 20:58:41 25 25 24.1
003C48CD 2019-03-17 20:26:02 25 25 24.2
003C48CD 2019-03-17 19:53:22 25 25 24.3
003C48CD 2019-03-17 19:20:45 25 24 24.5
003C48CD 2019-03-17 18:48:10 25 24 24.3
003C48CD 2019-03-17 18:15:34 24.6 24 24.4
003C48CD 2019-03-17 17:42:54 23.8 24 24.4
003C48CD 2019-03-17 17:10:17 23.8 22 24.5
003C48CD 2019-03-17 16:37:37 23.9 23 24.5
003C48CD 2019-03-17 16:04:58 24 23 24.5
003C48CD 2019-03-17 15:32:19 24.1 24 24.6
003C48CD 2019-03-17 14:59:41 24 25 24.5
003C48CD 2019-03-17 14:27:01 23.9 28 24.6
003C48CD 2019-03-17 13:54:24 23.8 26 24.6
003C48CD 2019-03-17 13:21:47 23.7 25 24.7
003C48CD 2019-03-17 12:48:36 23.6 25 24.8
003C48CD 2019-03-17 12:15:56 23.7 26 24.9
003C48CD 2019-03-17 11:43:16 23.7 26 24.8
003C48CD 2019-03-17 11:10:38 23.7 26 24.7
003C48CD 2019-03-17 10:37:57 23.7 26 24.7
003C48CD 2019-03-17 10:05:20 23.8 27 24.5
003C48CD 2019-03-17 09:32:37 23.8 27 24.4
003C48CD 2019-03-17 09:00:00 23.9 27 24.4
003C48CD 2019-03-17 08:27:20 23.9 27 24.5
003C48CD 2019-03-17 07:54:38 24 28 24.5
003C48CD 2019-03-17 07:21:58 24.1 28 24.4
003C48CD 2019-03-17 06:49:20 24.2 28 24.3
003C48CD 2019-03-17 06:16:38 24.4 29 24.2
003C48CD 2019-03-17 05:43:57 24.5 29 24.3
003C48CD 2019-03-17 05:11:14 24.7 30 24.4
003C48CD 2019-03-17 04:38:33 24.7 32 24.4
003C48CD 2019-03-17 04:05:53 24.7 33 24.3
003C48CD 2019-03-17 03:33:12 24.7 32 24.3
003C48CD 2019-03-17 03:00:30 24.8 33 24.4
003C48CD 2019-03-17 02:27:49 24.8 34 24.2
003C48CD 2019-03-17 01:55:06 24.8 34 24.3
003C48CD 2019-03-17 01:22:23 24.8 33 24.3
003C48CD 2019-03-17 00:49:40 24.8 32 24.4
003C48CD 2019-03-17 00:16:58 24.8 30 24.3
003C48CD 2019-03-16 23:44:17 24.8 25 24.2
003C48CD 2019-03-16 23:11:35 24.8 25 24.2
003C48CD 2019-03-16 22:38:54 24.8 25 24.2
003C48CD 2019-03-16 22:06:15 24.8 25 24.3
003C48CD 2019-03-16 21:33:36 24.8 26 24.4
003C48CD 2019-03-16 21:00:55 24.7 26 24.6
003C48CD 2019-03-16 20:28:16 24.5 27 24.6
003C48CD 2019-03-16 19:55:35 24.4 24 24.7
003C48CD 2019-03-16 19:22:54 24.4 24 24.7
003C48CD 2019-03-16 18:50:14 24.4 25 24.8
003C48CD 2019-03-16 18:17:35 24.3 25 24.8
003C48CD 2019-03-16 17:44:55 24.2 26 24.9
003C48CD 2019-03-16 17:12:17 24.1 27 24.9
003C48CD 2019-03-16 16:39:40 24.1 25 25
003C48CD 2019-03-16 16:07:00 24 25 24.9
003C48CD 2019-03-16 15:34:23 23.9 25 24.9
003C48CD 2019-03-16 15:01:48 23.7 26 24.8
003C48CD 2019-03-16 14:29:07 23.7 24 24.8
003C48CD 2019-03-16 13:56:28 23.7 24 24.8
003C48CD 2019-03-16 13:23:46 23.7 24 24.8
003C48CD 2019-03-16 12:51:04 23.7 24 24.8
003C48CD 2019-03-16 12:18:21 23.7 24 24.7
003C48CD 2019-03-16 11:45:39 23.7 24 24.7
003C48CD 2019-03-16 11:13:02 23.8 24 24.6
003C48CD 2019-03-16 10:40:20 23.8 24 24.7
003C48CD 2019-03-16 10:07:42 23.8 24 24.8
003C48CD 2019-03-16 09:34:26 23.9 24 24.9
003C48CD 2019-03-16 09:01:46 23.9 24 24.8
003C48CD 2019-03-16 08:29:06 24 24 24.7
003C48CD 2019-03-16 07:56:26 24 24 24.5
003C48CD 2019-03-16 07:23:48 24.1 24 24.5
003C48CD 2019-03-16 06:51:10 24.2 24 24.4
003C48CD 2019-03-16 06:18:33 24.2 24 24.4
003C48CD 2019-03-16 05:45:52 24.3 24 24.3
003C48CD 2019-03-16 05:13:10 24.5 24 24.2
003C48CD 2019-03-16 04:40:30 24.6 24 24.2
003C48CD 2019-03-16 04:07:49 24.7 25 24.1
003C48CD 2019-03-16 03:35:08 24.7 25 24
003C48CD 2019-03-16 03:02:27 24.7 24 24.2
003C48CD 2019-03-16 02:29:47 24.6 25 24.2
003C48CD 2019-03-16 01:57:09 24.4 26 24.2
003C48CD 2019-03-16 01:24:29 24.3 24 24.3
003C48CD 2019-03-16 00:51:48 24.3 25 24.1
003C48CD 2019-03-16 00:19:08 24.2 25 24.1
003C48CD 2019-03-15 23:46:29 24.1 25 24.2
003C48CD 2019-03-15 23:13:52 24 25 24.1
003C48CD 2019-03-15 22:41:11 23.9 27 24.1
003C48CD 2019-03-15 22:08:31 23.8 25 24.2
003C48CD 2019-03-15 21:35:52 23.7 26 24.1
003C48CD 2019-03-15 21:03:13 23.9 26 24
003C48CD 2019-03-15 20:30:35 24.4 25 24.1
003C48CD 2019-03-15 19:57:56 25 24 24
003C48CD 2019-03-15 19:25:16 25.1 24 23.9
003C48CD 2019-03-15 18:52:36 25.1 24 24
003C48CD 2019-03-15 18:19:58 24.7 24 24.1
003C48CD 2019-03-15 17:47:20 24.6 24 24.1
003C48CD 2019-03-15 17:14:42 24.6 24 24.2
003C48CD 2019-03-15 16:42:04 24.6 24 24.3
003C48CD 2019-03-15 16:09:26 24.7 24 24.4
003C48CD 2019-03-15 15:36:44 24.8 24 24.6
003C48CD 2019-03-15 15:04:04 24.7 25 24.9
003C48CD 2019-03-15 14:31:24 24 26 24.9
003C48CD 2019-03-15 13:58:43 23.8 26 24.9
003C48CD 2019-03-15 13:26:03 23.8 26 24.7
003C48CD 2019-03-15 12:53:22 23.6 27 24.8
003C48CD 2019-03-15 12:20:42 23.5 24 24.8
003C48CD 2019-03-15 11:48:00 23.5 24 24.9
003C48CD 2019-03-15 11:15:19 23.5 23 24.9
003C48CD 2019-03-15 10:42:38 23.6 24 25
003C48CD 2019-03-15 10:09:57 23.6 24 24.9
003C48CD 2019-03-15 09:37:18 23.6 24 25.1
003C48CD 2019-03-15 09:04:37 23.6 23 25.1
003C48CD 2019-03-15 08:31:56 23.7 23 25.1
003C48CD 2019-03-15 07:59:16 23.7 23 25.1
003C48CD 2019-03-15 07:26:36 23.8 23 25.2
003C48CD 2019-03-15 06:53:58 23.8 23 25.3
003C48CD 2019-03-15 06:20:45 23.9 24 25.4
003C48CD 2019-03-15 05:48:07 24 23 25.3
003C48CD 2019-03-15 05:15:30 24.1 23 25.3
003C48CD 2019-03-15 04:42:50 24.2 23 25.3
003C48CD 2019-03-15 04:10:10 24.4 23 25.2
003C48CD 2019-03-15 03:37:34 24.5 23 25.2
003C48CD 2019-03-15 03:04:52 24.6 23 25.1
003C48CD 2019-03-15 02:32:13 24.6 24 25
003C48CD 2019-03-15 01:59:31 24.7 22 24.5
003C48CD 2019-03-15 01:26:52 24.7 23 24.6
003C48CD 2019-03-15 00:54:11 24.7 23 24.7
003C48CD 2019-03-15 00:21:29 24.8 23 24.7
003C48CD 2019-03-14 23:48:49 24.8 23 24.6
003C48CD 2019-03-14 23:16:09 24.8 23 24.6
003C48CD 2019-03-14 22:43:31 24.8 24 24.5
003C48CD 2019-03-14 22:10:51 24.8 25 24.4
003C48CD 2019-03-14 21:38:10 24.7 26 24.4
003C48CD 2019-03-14 21:05:29 24.6 23 24.4
003C48CD 2019-03-14 20:32:48 24.6 23 24.2
003C48CD 2019-03-14 20:00:06 24.4 23 24.3
003C48CD 2019-03-14 19:27:25 24.3 22 24.3
003C48CD 2019-03-14 18:54:47 24.3 22 24.2
003C48CD 2019-03-14 18:22:06 24.3 22 24.3
003C48CD 2019-03-14 17:49:27 24.2 23 24.3
003C48CD 2019-03-14 17:16:45 24.2 23 24.2
003C48CD 2019-03-14 16:44:04 24.1 24 24.1
003C48CD 2019-03-14 16:11:24 23.9 26 24.2
003C48CD 2019-03-14 15:38:46 23.4 23 24.2
003C48CD 2019-03-14 15:06:09 23.3 21 24.2
003C48CD 2019-03-14 14:33:25 23.4 21 24.2
003C48CD 2019-03-14 14:00:47 23.4 21 24.1
003C48CD 2019-03-14 13:28:05 23.4 21 24.3
003C48CD 2019-03-14 12:55:23 23.5 21 24.4
003C48CD 2019-03-14 12:22:44 23.5 21 24.5
003C48CD 2019-03-14 11:50:05 23.5 22 24.4
003C48CD 2019-03-14 11:17:25 23.6 22 24.4
003C48CD 2019-03-14 10:44:44 23.6 23 24.4
003C48CD 2019-03-14 10:12:05 23.6 24 24.4
003C48CD 2019-03-14 09:39:24 23.6 25 24.8
003C48CD 2019-03-14 09:06:47 23.6 22 24.9
003C48CD 2019-03-14 04:45:29 24 21 24.9
003C48CD 2019-03-14 04:12:50 24.1 20 24.8
003C48CD 2019-03-14 03:40:12 24.3 20 25
003C48CD 2019-03-14 03:07:00 24.4 20 25
003C48CD 2019-03-14 02:34:21 24.6 20 25
003C48CD 2019-03-14 02:01:42 24.6 20 24.9
003C48CD 2019-03-14 01:29:02 24.7 21 24.9
003C48CD 2019-03-14 00:56:21 24.7 21 25
003C48CD 2019-03-14 00:23:40 24.7 22 24.9
003C48CD 2019-03-13 23:51:01 24.6 20 24.9
003C48CD 2019-03-13 23:18:19 24.6 19 24.9
003C48CD 2019-03-13 22:45:39 24.5 19 24.8
003C48CD 2019-03-13 22:13:02 24.6 17 24.9
003C48CD 2019-03-13 21:40:25 24.6 16 25
003C48CD 2019-03-13 21:07:47 24.6 16 25.1
003C48CD 2019-03-13 20:35:08 24.6 16 24.8
003C48CD 2019-03-13 20:02:29 24.5 16 24.7
003C48CD 2019-03-13 19:29:47 24.5 16 24.8
003C48CD 2019-03-13 18:57:09 24.3 17 24.8
003C48CD 2019-03-13 18:24:27 23.6 16 24.9
003C48CD 2019-03-13 17:51:50 23.5 14 24.8
003C48CD 2019-03-13 17:19:11 23.5 14 24.8
003C48CD 2019-03-13 16:46:31 23.5 14 24.8
003C48CD 2019-03-13 16:13:51 23.5 14 24.7
003C48CD 2019-03-13 15:41:11 23.5 14 24.8
003C48CD 2019-03-13 15:08:33 23.5 14 24.8
003C48CD 2019-03-13 14:35:54 23.6 14 24.7
003C48CD 2019-03-13 14:03:11 23.6 14 24.7
003C48CD 2019-03-13 13:30:33 23.7 13 24.7
003C48CD 2019-03-13 12:57:51 23.7 14 24.7
003C48CD 2019-03-13 12:25:13 23.7 14 24.8
003C48CD 2019-03-13 11:52:36 23.8 14 24.8
003C48CD 2019-03-13 11:19:59 23.8 15 24.9
003C48CD 2019-03-13 10:47:19 23.8 15 24.9
003C48CD 2019-03-13 10:14:39 23.8 17 24.9
003C48CD 2019-03-13 09:41:59 23.8 18 24.8
003C48CD 2019-03-13 09:09:20 23.8 15 24.8
003C48CD 2019-03-13 08:36:43 23.8 14 24.8
003C48CD 2019-03-13 08:04:04 23.8 13 24.8
003C48CD 2019-03-13 07:31:24 23.9 13 24.8
003C48CD 2019-03-13 06:58:47 23.9 13 24.7
003C48CD 2019-03-13 06:26:08 23.9 13 24.8
003C48CD 2019-03-13 05:53:29 23.9 13 24.9
003C48CD 2019-03-13 05:20:47 23.9 13 24.9
003C48CD 2019-03-13 04:48:07 24 13 24.9
003C48CD 2019-03-13 04:15:27 24 14 25
003C48CD 2019-03-13 03:42:48 24.1 14 24.9
003C48CD 2019-03-13 03:10:08 24.2 14 24.9
003C48CD 2019-03-13 02:37:30 24.2 14 24.9
003C48CD 2019-03-13 02:04:51 24.4 14 24.9
003C48CD 2019-03-13 01:32:09 24.5 14 24.9
003C48CD 2019-03-13 00:59:31 24.6 15 24.9
003C48CD 2019-03-13 00:26:47 24.7 15 25
003C48CD 2019-03-12 23:53:34 24.6 15 24.9
003C48CD 2019-03-12 23:20:55 24.7 15 24.9
003C48CD 2019-03-12 22:48:17 24.7 15 25
003C48CD 2019-03-12 22:15:36 24.7 15 24.9
003C48CD 2019-03-12 21:42:55 24.7 15 24.8
003C48CD 2019-03-12 21:10:15 24.7 15 24.7
003C48CD 2019-03-12 20:37:35 24.7 15 24.8
003C48CD 2019-03-12 20:04:55 24.7 15 24.8
003C48CD 2019-03-12 19:32:17 24.7 15 24.7
003C48CD 2019-03-12 18:59:39 24.7 15 24.5
003C48CD 2019-03-12 18:26:58 24.7 15 24.6
003C48CD 2019-03-12 17:54:20 24.7 15 24.5
003C48CD 2019-03-12 17:21:39 24.7 15 24.6
003C48CD 2019-03-12 16:48:57 24.7 15 24.5
003C48CD 2019-03-12 16:16:15 24.8 15 24.4
003C48CD 2019-03-12 15:43:36 24.8 16 24.4
003C48CD 2019-03-12 15:10:57 24.9 16 24.4
003C48CD 2019-03-12 14:38:20 24.8 18 24.4
003C48CD 2019-03-12 14:05:42 24.6 24 24.4
003C48CD 2019-03-12 13:33:00 24.4 15 24.4
003C48CD 2019-03-12 13:00:22 24.4 16 24.5
003C48CD 2019-03-12 12:27:46 24.3 16 24.5
003C48CD 2019-03-12 11:55:06 24.2 17 24.6
003C48CD 2019-03-12 11:22:25 24.1 18 24.7
003C48CD 2019-03-12 10:49:47 23.9 19 24.8
003C48CD 2019-03-12 10:17:09 23.8 15 24.8
003C48CD 2019-03-12 09:44:27 23.7 14 24.8
003C48CD 2019-03-12 09:11:49 23.7 14 24.7
003C48CD 2019-03-12 08:39:08 23.7 14 24.7
003C48CD 2019-03-12 08:06:28 23.7 13 24.8
003C48CD 2019-03-12 07:33:48 23.7 13 24.8
003C48CD 2019-03-12 07:01:08 23.8 13 24.8
003C48CD 2019-03-12 06:28:27 23.8 13 24.8
003C48CD 2019-03-12 05:55:49 23.8 14 24.9
003C48CD 2019-03-12 05:23:11 23.9 14 24.9
003C48CD 2019-03-12 04:50:31 24 13 24.9
003C48CD 2019-03-12 04:17:52 24 14 24.8
003C48CD 2019-03-12 03:45:14 24.1 14 24.8
003C48CD 2019-03-12 03:12:34 24.2 15 24.8
003C48CD 2019-03-12 02:39:57 24.3 15 24.9
003C48CD 2019-03-12 02:07:18 24.4 15 24.9
003C48CD 2019-03-12 01:34:38 24.5 15 24.9
003C48CD 2019-03-12 01:02:00 24.7 16 24.9
003C48CD 2019-03-12 00:29:21 24.7 17 24.9
003C48CD 2019-03-11 23:56:42 24.6 17 24.9
003C48CD 2019-03-11 23:24:08 24.5 18 24.9
003C48CD 2019-03-11 22:51:31 24.4 15 24.9
003C48CD 2019-03-11 22:18:52 24.4 16 24.7
003C48CD 2019-03-11 21:46:12 24.3 16 24.6
003C48CD 2019-03-11 21:13:36 24.3 17 24.6
003C48CD 2019-03-11 20:40:27 24.2 16 24.7
003C48CD 2019-03-11 20:07:52 24.1 16 24.7
003C48CD 2019-03-11 19:35:15 23.9 19 24.9
003C48CD 2019-03-11 19:02:36 23.6 18 24.8
003C48CD 2019-03-11 18:29:59 23.4 13 25.2
003C48CD 2019-03-11 17:57:19 23.5 13 25.3
003C48CD 2019-03-11 17:24:39 23.5 13 25.3
003C48CD 2019-03-11 16:52:01 23.5 13 25.4
003C48CD 2019-03-11 16:19:25 23.5 13 25.4
003C48CD 2019-03-11 15:46:46 23.5 13 25.4
003C48CD 2019-03-11 15:14:07 23.5 14 25.3
003C48CD 2019-03-11 14:41:31 23.6 14 25.3
003C48CD 2019-03-11 14:08:54 23.6 14 25.3
003C48CD 2019-03-11 13:36:14 23.7 13 25.3
003C48CD 2019-03-11 13:03:34 23.6 13 25.3
003C48CD 2019-03-11 12:30:54 23.7 13 25.2
003C48CD 2019-03-11 11:58:15 23.7 13 25.2
003C48CD 2019-03-11 11:25:37 23.8 14 25.2
003C48CD 2019-03-11 10:53:00 23.8 14 25.1
003C48CD 2019-03-11 10:20:20 23.8 15 25.2
003C48CD 2019-03-11 09:47:40 23.9 16 25.1
003C48CD 2019-03-11 09:14:59 23.9 19 25.1
003C48CD 2019-03-11 08:42:18 23.9 19 25.1
003C48CD 2019-03-11 08:09:36 23.8 16 25.2
003C48CD 2019-03-11 07:36:57 23.9 16 25.1
003C48CD 2019-03-11 07:04:14 24 16 25.1
003C48CD 2019-03-11 06:31:32 24.1 15 25
003C48CD 2019-03-11 05:58:55 24.1 15 24.9
003C48CD 2019-03-11 05:26:14 24.3 15 24.9
003C48CD 2019-03-11 04:53:36 24.4 15 24.3
003C48CD 2019-03-11 04:20:57 24.6 15 24.3
003C48CD 2019-03-11 03:48:18 24.7 16 24.4
003C48CD 2019-03-11 03:15:41 24.8 16 24.3
003C48CD 2019-03-11 02:43:05 24.8 16 24.4
003C48CD 2019-03-11 02:10:28 24.8 17 24.4
003C48CD 2019-03-11 01:37:50 24.8 17 24.5
003C48CD 2019-03-11 01:05:12 24.8 16 24.6
003C48CD 2019-03-11 00:32:32 24.8 16 24.5
003C48CD 2019-03-10 23:59:53 24.9 18 24.4
003C48CD 2019-03-10 23:27:12 25 19 24.4
003C48CD 2019-03-10 22:54:30 25 20 24.5
003C48CD 2019-03-10 22:21:53 25 18 24.4
003C48CD 2019-03-10 21:49:15 24.9 19 24.5
003C48CD 2019-03-10 21:16:37 24.9 16 24.5
003C48CD 2019-03-10 20:43:58 24.9 16 24.4
003C48CD 2019-03-10 20:11:16 24.9 17 24.9
003C48CD 2019-03-10 19:38:37 24.9 18 25
003C48CD 2019-03-10 19:05:58 24.5 19 25.1
003C48CD 2019-03-10 18:33:19 24.4 23 25.1
003C48CD 2019-03-10 18:00:44 24.1 22 25.2
003C48CD 2019-03-10 17:27:31 24 18 25.2
003C48CD 2019-03-10 16:54:53 23.9 19 25.2
003C48CD 2019-03-10 16:22:12 23.8 21 25.3
003C48CD 2019-03-10 15:49:31 23.6 17 25.4
003C48CD 2019-03-10 15:16:52 23.5 17 25.3
003C48CD 2019-03-10 14:44:11 23.4 17 25.2
003C48CD 2019-03-10 14:11:30 23.4 17 25.1
003C48CD 2019-03-10 13:38:53 23.4 18 25
003C48CD 2019-03-10 13:06:13 23.5 19 25.1
003C48CD 2019-03-10 12:33:35 23.5 19 25.1
003C48CD 2019-03-10 12:00:57 23.5 19 25.1
003C48CD 2019-03-10 11:28:15 23.5 20 25.1
003C48CD 2019-03-10 10:55:36 23.5 20 25.1
003C48CD 2019-03-10 10:22:57 23.6 21 25.1
003C48CD 2019-03-10 09:50:19 23.6 21 25.1
003C48CD 2019-03-10 09:17:41 23.7 22 25.1
003C48CD 2019-03-10 08:45:01 23.7 22 25.1
003C48CD 2019-03-10 08:12:20 23.8 23 25
003C48CD 2019-03-10 07:39:42 23.9 23 24.9
003C48CD 2019-03-10 07:07:02 23.9 23 24.6
003C48CD 2019-03-10 06:34:21 24 23 24.5
003C48CD 2019-03-10 06:01:39 24.1 23 24.4
003C48CD 2019-03-10 05:28:59 24.2 23 24.3
003C48CD 2019-03-10 04:56:19 24.4 23 24.3
003C48CD 2019-03-10 04:23:39 24.4 23 24.2
003C48CD 2019-03-10 03:50:59 24.5 23 24.1
003C48CD 2019-03-10 03:18:18 24.5 23 24.3
003C48CD 2019-03-10 02:45:39 24.5 23 24.3
003C48CD 2019-03-10 02:12:56 24.5 23 24.3
003C48CD 2019-03-10 01:40:16 24.5 23 24.4
003C48CD 2019-03-10 01:07:37 24.4 23 24.5
003C48CD 2019-03-10 00:34:57 24.4 24 24.5
003C48CD 2019-03-10 00:02:14 24.4 24 24.6
003C48CD 2019-03-09 23:29:33 24.3 22 24.5
003C48CD 2019-03-09 22:56:52 24.3 22 24.4
003C48CD 2019-03-09 22:24:11 24.3 23 24.4
003C48CD 2019-03-09 21:51:30 24.2 22 24.4
003C48CD 2019-03-09 21:18:49 24.2 22 24.2
003C48CD 2019-03-09 20:46:09 24.2 23 24.2
003C48CD 2019-03-09 20:13:27 24.1 23 24.3
003C48CD 2019-03-09 19:40:47 24 23 24.3
003C48CD 2019-03-09 19:08:08 24 22 24.3
003C48CD 2019-03-09 18:35:25 23.9 22 24.3
003C48CD 2019-03-09 18:02:44 23.8 22 24.3
003C48CD 2019-03-09 17:30:03 23.7 22 24.4
003C48CD 2019-03-09 16:57:22 23.6 22 24.4
003C48CD 2019-03-09 16:24:42 23.6 20 24.5
003C48CD 2019-03-09 15:52:03 23.7 19 24.5
003C48CD 2019-03-09 15:19:24 23.7 20 24.5
003C48CD 2019-03-09 14:46:45 23.8 21 24.5
003C48CD 2019-03-09 14:13:30 23.8 22 24.6
003C48CD 2019-03-09 13:40:49 23.6 22 24.7
003C48CD 2019-03-09 13:08:08 23.6 25 24.6
003C48CD 2019-03-09 12:35:28 23.5 21 24.5
003C48CD 2019-03-09 12:02:46 23.4 20 24.6
003C48CD 2019-03-09 11:30:06 23.5 20 24.6
003C48CD 2019-03-09 10:57:26 23.5 20 24.7
003C48CD 2019-03-09 10:24:45 23.5 21 24.8
003C48CD 2019-03-09 09:52:05 23.6 21 24.8
003C48CD 2019-03-09 09:19:26 23.6 22 24.8
003C48CD 2019-03-09 08:46:48 23.6 22 24.9
003C48CD 2019-03-09 08:14:07 23.7 22 25
003C48CD 2019-03-09 07:41:26 23.8 23 25
003C48CD 2019-03-09 07:08:43 23.9 24 24.9
003C48CD 2019-03-09 06:36:02 24 24 24.8
003C48CD 2019-03-09 06:03:20 24.1 25 24.9
003C48CD 2019-03-09 05:30:41 24.2 26 25
003C48CD 2019-03-09 04:58:02 24.4 26 25
003C48CD 2019-03-09 04:25:24 24.4 26 25
003C48CD 2019-03-09 03:52:43 24.4 24 25
003C48CD 2019-03-09 03:20:05 24.4 24 25
003C48CD 2019-03-09 02:47:26 24.4 24 24.9
003C48CD 2019-03-09 02:14:45 24.4 24 24.9
003C48CD 2019-03-09 01:42:04 24.4 25 24.9
003C48CD 2019-03-09 01:09:26 24.3 26 24.9
003C48CD 2019-03-09 00:36:45 24.3 28 24.8
003C48CD 2019-03-09 00:04:03 24.3 31 25
003C48CD 2019-03-08 23:31:22 24.2 33 25.1
003C48CD 2019-03-08 22:58:45 24.2 31 25
003C48CD 2019-03-08 22:26:03 24.1 27 25.1
003C48CD 2019-03-08 21:53:24 24.1 27 25.1
003C48CD 2019-03-08 21:20:45 23.9 27 25.1
003C48CD 2019-03-08 20:48:03 23.7 27 25.1
003C48CD 2019-03-08 20:15:23 23.4 28 25.1
003C48CD 2019-03-08 19:42:43 23.2 30 25.1
003C48CD 2019-03-08 19:10:04 23.1 27 25
003C48CD 2019-03-08 18:37:22 23.9 25 25
003C48CD 2019-03-08 18:04:41 23.8 25 25
003C48CD 2019-03-08 17:31:59 23.7 25 25
003C48CD 2019-03-08 16:59:19 23.7 24 25
003C48CD 2019-03-08 16:26:41 23.7 24 24.8
003C48CD 2019-03-08 15:54:02 23.8 24 24.8
003C48CD 2019-03-08 15:21:23 23.8 25 24.9
003C48CD 2019-03-08 14:48:43 23.9 27 24.9
003C48CD 2019-03-08 14:16:05 23.9 28 24.9
003C48CD 2019-03-08 13:43:25 23.9 28 24.9
003C48CD 2019-03-08 13:10:43 23.9 24 25
003C48CD 2019-03-08 12:38:03 23.9 24 24.9
003C48CD 2019-03-08 12:05:23 23.9 24 25
003C48CD 2019-03-08 11:32:43 24 23 24.8
003C48CD 2019-03-08 10:59:31 24 23 24.8
003C48CD 2019-03-08 10:26:49 24 23 24.7
003C48CD 2019-03-08 09:54:08 24 23 24.8
003C48CD 2019-03-08 09:21:31 24 23 24.6
003C48CD 2019-03-08 08:48:54 24.1 23 24.6
003C48CD 2019-03-08 08:16:13 24.1 24 24.6
003C48CD 2019-03-08 07:43:33 24.2 24 24.6
003C48CD 2019-03-08 07:10:54 24.2 23 24.8
003C48CD 2019-03-08 06:38:13 24.3 24 24.8
003C48CD 2019-03-08 06:05:32 24.4 24 24.9
003C48CD 2019-03-08 05:32:49 24.6 24 25
003C48CD 2019-03-08 05:00:11 24.7 24 25
003C48CD 2019-03-08 04:27:31 24.8 24 25.2
003C48CD 2019-03-08 03:54:50 24.9 24 25.4
003C48CD 2019-03-08 03:22:09 25.1 24 25.4
003C48CD 2019-03-08 02:49:28 25.1 24 25.5
003C48CD 2019-03-08 02:16:49 25.1 23 25.4
003C48CD 2019-03-08 01:44:08 25.1 22 25.4
003C48CD 2019-03-08 01:11:29 25.2 23 25.3
003C48CD 2019-03-08 00:38:50 25.2 23 25.4
003C48CD 2019-03-08 00:06:09 25.2 23 25.3
003C48CD 2019-03-07 23:33:29 25.1 24 25.5
003C48CD 2019-03-07 23:00:47 25.2 22 25.5
003C48CD 2019-03-07 22:28:08 25.1 23 25.6
003C48CD 2019-03-07 21:55:30 25.1 21 25.6
003C48CD 2019-03-07 21:22:49 25.1 22 25.5
003C48CD 2019-03-07 20:50:10 25.1 22 25.4
003C48CD 2019-03-07 20:17:31 25.1 21 25.4
003C48CD 2019-03-07 19:44:50 25.1 22 25.4
003C48CD 2019-03-07 19:12:11 25.2 21 25.3
003C48CD 2019-03-07 18:39:34 25.2 21 25.4
003C48CD 2019-03-07 18:06:57 25.2 22 25.3
003C48CD 2019-03-07 17:34:18 25.1 22 25.3
003C48CD 2019-03-07 17:01:42 25.1 23 25.2
003C48CD 2019-03-07 16:29:04 25.1 23 25.1
003C48CD 2019-03-07 15:56:25 25.2 24 24.9
003C48CD 2019-03-07 15:23:47 25.2 22 25
003C48CD 2019-03-07 14:51:06 25.3 20 24.9
003C48CD 2019-03-07 14:18:25 25.3 19 25
003C48CD 2019-03-07 13:45:47 25.3 19 25.1
003C48CD 2019-03-07 13:13:08 25.3 20 25
003C48CD 2019-03-07 12:40:30 25.1 20 25
003C48CD 2019-03-07 12:07:48 24.6 19 25
003C48CD 2019-03-07 11:35:09 24.4 19 25
003C48CD 2019-03-07 11:02:27 24.5 18 24.9
003C48CD 2019-03-07 10:29:49 24.5 19 24.9
003C48CD 2019-03-07 09:57:10 24.6 22 24.8
003C48CD 2019-03-07 09:24:30 24.5 23 24.6
003C48CD 2019-03-07 08:51:49 24.5 18 24.6
003C48CD 2019-03-07 08:19:11 24.6 18 24.6
003C48CD 2019-03-07 07:46:00 24.7 18 24.8
003C48CD 2019-03-07 07:13:20 24.7 18 24.7
003C48CD 2019-03-07 06:40:40 24.9 18 24.7
003C48CD 2019-03-07 06:08:00 25 18 24.7
003C48CD 2019-03-07 05:35:19 25.1 18 24.6
003C48CD 2019-03-07 05:02:37 25.3 18 24.6
003C48CD 2019-03-07 04:29:59 25.4 18 24.5
003C48CD 2019-03-07 03:57:18 25.6 18 24.5
003C48CD 2019-03-07 03:24:40 25.6 18 24.5
003C48CD 2019-03-07 02:51:58 25.7 18 24.6
003C48CD 2019-03-07 02:19:18 25.7 18 24.5
003C48CD 2019-03-07 01:46:37 25.7 19 24.4
003C48CD 2019-03-07 01:13:56 25.7 18 24.3
003C48CD 2019-03-07 00:41:15 25.6 18 24.1
003C48CD 2019-03-07 00:08:35 25.5 18 24.2
003C48CD 2019-03-06 23:35:56 25.5 18 24.3
003C48CD 2019-03-06 23:03:15 25.5 19 24.2
003C48CD 2019-03-06 22:30:35 25.4 16 24.2
003C48CD 2019-03-06 21:57:52 25.4 15 24.3
003C48CD 2019-03-06 21:25:10 25.4 15 24.3
003C48CD 2019-03-06 20:52:28 25.2 15 24.3
003C48CD 2019-03-06 20:19:48 25.1 15 24.4
003C48CD 2019-03-06 19:47:07 25.6 13 24.4
003C48CD 2019-03-06 19:14:29 25.8 13 24.4
003C48CD 2019-03-06 18:41:47 26.1 13 24.4
003C48CD 2019-03-06 18:09:06 25.9 14 24.3
003C48CD 2019-03-06 17:36:25 25.1 13 24.3
003C48CD 2019-03-06 17:03:46 24.9 13 24.3
003C48CD 2019-03-06 16:31:07 24.9 13 24.3
003C48CD 2019-03-06 15:58:27 24.9 13 24.3
003C48CD 2019-03-06 15:25:52 24.8 13 24.2
003C48CD 2019-03-06 14:53:14 24.7 14 24.3
003C48CD 2019-03-06 14:20:37 24.5 13 24.4
003C48CD 2019-03-06 13:47:58 24.4 13 24.4
003C48CD 2019-03-06 13:15:18 24.4 9 24.3
003C48CD 2019-03-06 12:42:41 24.4 8 24.3
003C48CD 2019-03-06 12:10:03 24.5 7 24.4
003C48CD 2019-03-06 11:37:24 24.5 8 24.3
003C48CD 2019-03-06 11:04:47 24.5 8 24.4
003C48CD 2019-03-06 10:32:07 24.5 8 24.3
003C48CD 2019-03-06 09:59:31 24.5 9 24.4
003C48CD 2019-03-06 09:26:53 24.5 9 24.4
003C48CD 2019-03-06 08:54:13 24.5 9 24.3
003C48CD 2019-03-06 08:21:35 24.4 9 24.3
003C48CD 2019-03-06 07:48:58 24.4 9 24.3
003C48CD 2019-03-06 07:16:20 24.4 9 24.2
003C48CD 2019-03-06 06:43:41 24.5 10 24
003C48CD 2019-03-06 06:11:05 24.5 9 24.2
003C48CD 2019-03-06 05:38:27 24.6 9 24
003C48CD 2019-03-06 05:05:50 24.7 9 24
003C48CD 2019-03-06 04:32:38 24.9 9 24.2
003C48CD 2019-03-06 03:59:59 25.1 9 24.3
003C48CD 2019-03-06 03:27:18 25.2 10 24.4
003C48CD 2019-03-06 02:54:39 25.1 10 24.4
003C48CD 2019-03-06 02:22:02 25.1 9 24.4
003C48CD 2019-03-06 01:49:26 25.1 10 24.6
003C48CD 2019-03-06 01:16:46 25.1 10 24.5
003C48CD 2019-03-06 00:44:07 25 10 24.4
003C48CD 2019-03-06 00:11:25 24.9 12 24.5
003C48CD 2019-03-05 23:38:46 24.9 9 24.5
003C48CD 2019-03-05 23:06:06 24.9 9 24.4
003C48CD 2019-03-05 22:33:27 24.8 10 24.5
003C48CD 2019-03-05 22:00:46 24.8 9 24.5
003C48CD 2019-03-05 21:28:06 24.9 11 24.4
003C48CD 2019-03-05 20:55:27 24.8 12 24.3
003C48CD 2019-03-05 20:22:47 24.8 13 24.3
003C48CD 2019-03-05 19:50:07 24.7 12 24.3
003C48CD 2019-03-05 19:17:29 24.7 13 24.3
003C48CD 2019-03-05 18:44:50 24.7 12 24.3
003C48CD 2019-03-05 18:12:11 24.7 13 24.6
003C48CD 2019-03-05 17:39:31 24.6 13 24.8
003C48CD 2019-03-05 17:06:54 24.5 13 24.7
003C48CD 2019-03-05 16:34:13 24.5 13 24.8
003C48CD 2019-03-05 16:01:35 24.4 13 24.7
003C48CD 2019-03-05 15:28:56 24.7 14 24.7
003C48CD 2019-03-05 14:56:18 25 16 24.6
003C48CD 2019-03-05 14:23:41 25 17 24.6
003C48CD 2019-03-05 13:51:02 24.4 19 24.6
003C48CD 2019-03-05 13:18:24 24.1 17 24.6
003C48CD 2019-03-05 12:45:45 23.9 18 24.6
003C48CD 2019-03-05 12:13:08 23.7 19 24.5
003C48CD 2019-03-05 11:40:31 23.6 15 24.5
003C48CD 2019-03-05 11:07:50 23.6 15 24.6
003C48CD 2019-03-05 10:35:13 23.6 15 24.7
003C48CD 2019-03-05 10:02:35 23.6 15 24.7
003C48CD 2019-03-05 09:29:56 23.6 15 24.7
003C48CD 2019-03-05 08:57:13 23.6 16 24.7
003C48CD 2019-03-05 08:24:33 23.6 16 24.6
003C48CD 2019-03-05 07:51:56 23.6 16 24.7
003C48CD 2019-03-05 07:19:16 23.7 16 24.6
003C48CD 2019-03-05 06:46:36 23.7 17 24.7
003C48CD 2019-03-05 06:13:58 23.8 17 24.8
003C48CD 2019-03-05 05:41:17 23.8 17 24.8
003C48CD 2019-03-05 05:08:38 23.8 17 24.6
003C48CD 2019-03-05 04:35:57 24 17 24.5
003C48CD 2019-03-05 04:03:19 24.1 17 24.3
003C48CD 2019-03-05 03:30:42 24.2 17 24.2
003C48CD 2019-03-05 02:58:04 24.4 17 24.2
003C48CD 2019-03-05 02:25:26 24.5 18 24.2
003C48CD 2019-03-05 01:52:44 24.5 18 24.2
003C48CD 2019-03-05 01:19:32 24.4 18 24.4
003C48CD 2019-03-05 00:46:53 24.4 18 24.4
003C48CD 2019-03-05 00:14:14 24.3 18 24.4
003C48CD 2019-03-04 23:41:35 24.3 18 24.3
003C48CD 2019-03-04 23:08:56 24.3 18 24.3
003C48CD 2019-03-04 22:36:14 24.2 18 24.3
003C48CD 2019-03-04 22:03:33 24.2 18 24.2
003C48CD 2019-03-04 21:30:51 24.2 18 24.2
003C48CD 2019-03-04 20:58:11 24.1 18 24.1
003C48CD 2019-03-04 20:25:32 24.1 18 24.2
003C48CD 2019-03-04 19:52:51 24 18 24.3
003C48CD 2019-03-04 19:20:13 23.9 18 24.2
003C48CD 2019-03-04 18:47:32 23.8 18 24.2
003C48CD 2019-03-04 18:14:55 23.6 18 24.3
003C48CD 2019-03-04 17:42:14 23.4 17 24.2
003C48CD 2019-03-04 17:09:33 23.5 17 24.1
003C48CD 2019-03-04 16:36:53 23.7 17 24.3
003C48CD 2019-03-04 16:04:17 23.9 17 24.4
003C48CD 2019-03-04 15:31:36 24 18 24.3
003C48CD 2019-03-04 14:58:59 24.1 19 24.4
003C48CD 2019-03-04 14:26:21 23.9 20 24.3
003C48CD 2019-03-04 13:53:43 23.9 21 24.4
003C48CD 2019-03-04 13:21:05 23.8 22 24.4
003C48CD 2019-03-04 12:48:25 23.4 21 24.4
003C48CD 2019-03-04 12:15:46 23.2 21 24.4
003C48CD 2019-03-04 11:43:06 23 17 24.3
003C48CD 2019-03-04 11:10:28 23 16 24.2
003C48CD 2019-03-04 10:37:49 23 15 24.2
003C48CD 2019-03-04 10:05:10 23.1 15 24.2
003C48CD 2019-03-04 09:32:32 23.1 15 24.2
003C48CD 2019-03-04 08:59:53 23.1 15 24.3
003C48CD 2019-03-04 08:27:15 23.2 15 24.3
003C48CD 2019-03-04 07:54:38 23.1 15 24.8
003C48CD 2019-03-04 07:21:57 23.2 15 24.8
003C48CD 2019-03-04 06:49:17 23.2 15 24.7
003C48CD 2019-03-04 06:16:39 23.3 15 24.5
003C48CD 2019-03-04 05:44:01 23.4 15 24.6
003C48CD 2019-03-04 05:11:24 23.5 15 24.6
003C48CD 2019-03-04 04:38:42 23.7 15 24.6
003C48CD 2019-03-04 04:06:05 23.9 15 24.7
003C48CD 2019-03-04 03:33:28 24.1 15 24.9
003C48CD 2019-03-04 03:00:52 24.1 16 24.8
003C48CD 2019-03-04 02:28:10 24.1 17 24.7
003C48CD 2019-03-04 01:55:31 24.1 18 24.8
003C48CD 2019-03-04 01:22:50 24.1 18 24.8
003C48CD 2019-03-04 00:50:12 24.1 19 24.9
003C48CD 2019-03-04 00:17:35 24.1 17 24.9
003C48CD 2019-03-03 23:44:55 24 16 25
003C48CD 2019-03-03 23:12:15 23.9 16 24.9
003C48CD 2019-03-03 22:39:39 23.8 16 24.9
003C48CD 2019-03-03 22:06:29 23.8 15 25
003C48CD 2019-03-03 21:33:50 23.8 14 25.1
003C48CD 2019-03-03 21:01:11 23.9 14 25.1
003C48CD 2019-03-03 20:28:33 23.9 14 25.2
003C48CD 2019-03-03 19:55:53 23.9 14 25.1
003C48CD 2019-03-03 19:23:13 23.9 15 25.1
003C48CD 2019-03-03 18:50:34 23.9 16 24.7
003C48CD 2019-03-03 18:17:55 23.8 18 24.8
003C48CD 2019-03-03 17:45:17 23.3 14 24.9
003C48CD 2019-03-03 17:12:39 23.2 13 25
003C48CD 2019-03-03 16:40:05 23.3 13 25
003C48CD 2019-03-03 16:07:26 23.4 13 24.9
003C48CD 2019-03-03 15:34:46 23.7 14 24.9
003C48CD 2019-03-03 15:02:07 23.8 16 24.8
003C48CD 2019-03-03 14:29:29 23.7 16 24.7
003C48CD 2019-03-03 13:56:48 23.7 19 25.1
003C48CD 2019-03-03 13:24:07 23.4 13 25.1
003C48CD 2019-03-03 12:51:27 23.2 13 25.1
003C48CD 2019-03-03 12:18:48 23.1 12 25
003C48CD 2019-03-03 11:46:06 23.1 12 25
003C48CD 2019-03-03 11:13:25 23.1 12 24.9
003C48CD 2019-03-03 10:40:46 23.1 12 24.8
003C48CD 2019-03-03 10:08:09 23.1 12 24.7
003C48CD 2019-03-03 09:35:28 23.1 12 24.6
003C48CD 2019-03-03 09:02:46 23.1 13 24.7
003C48CD 2019-03-03 08:30:07 23.1 13 24.6
003C48CD 2019-03-03 07:57:29 23.1 13 24.6
003C48CD 2019-03-03 07:24:50 23.2 13 24.6
003C48CD 2019-03-03 06:52:11 23.2 13 24.6
003C48CD 2019-03-03 06:19:32 23.3 13 24.6
003C48CD 2019-03-03 05:46:53 23.4 13 24.5
003C48CD 2019-03-03 05:14:13 23.6 13 24.5
003C48CD 2019-03-03 04:41:33 23.9 14 24.5
003C48CD 2019-03-03 04:08:52 23.8 14 24.4
003C48CD 2019-03-03 03:36:15 23.8 15 24.3
003C48CD 2019-03-03 03:03:35 23.8 15 24.3
003C48CD 2019-03-03 02:30:56 23.8 16 24.4
003C48CD 2019-03-03 01:58:17 23.8 16 24.3
003C48CD 2019-03-03 01:25:41 23.8 17 24.4
003C48CD 2019-03-03 00:53:03 23.8 16 24.4
003C48CD 2019-03-03 00:20:26 23.8 17 23.9
003C48CD 2019-03-02 23:47:50 23.8 17 23.8
003C48CD 2019-03-02 23:15:11 23.8 17 23.9
003C48CD 2019-03-02 22:42:32 23.8 19 24
003C48CD 2019-03-02 22:09:55 23.8 20 24.5
003C48CD 2019-03-02 21:37:15 23.8 21 24.6
003C48CD 2019-03-02 21:04:37 23.8 21 24.8
003C48CD 2019-03-02 20:31:58 23.8 22 24.8
003C48CD 2019-03-02 19:59:17 23.9 23 24.9
003C48CD 2019-03-02 19:26:38 23.9 23 24.8
003C48CD 2019-03-02 18:53:23 23.8 21 24.8
003C48CD 2019-03-02 18:20:46 23.8 20 24.9
003C48CD 2019-03-02 17:48:05 23.8 21 24.9
003C48CD 2019-03-02 17:15:24 23.7 22 25
003C48CD 2019-03-02 16:42:44 23.8 22 25.4
003C48CD 2019-03-02 16:10:05 23.7 23 25.3
003C48CD 2019-03-02 15:37:24 23.7 24 25.3
003C48CD 2019-03-02 15:04:45 23.5 26 25.4
003C48CD 2019-03-02 14:32:06 23.1 23 25.4
003C48CD 2019-03-02 13:59:26 23.2 24 25.4
003C48CD 2019-03-02 13:26:49 23.3 25 25.4
003C48CD 2019-03-02 12:54:10 23 26 25.4
003C48CD 2019-03-02 12:21:34 22.8 24 25.4
003C48CD 2019-03-02 11:48:52 22.8 20 25.4
003C48CD 2019-03-02 11:16:14 22.8 19 25.4
003C48CD 2019-03-02 10:43:38 22.8 18 25.8
003C48CD 2019-03-02 10:10:56 22.8 18 25.8
003C48CD 2019-03-02 09:38:16 22.8 18 25.8
003C48CD 2019-03-02 09:05:39 22.8 18 25.4
003C48CD 2019-03-02 08:32:57 22.8 18 25.3
003C48CD 2019-03-02 08:00:18 22.9 18 25.3
003C48CD 2019-03-02 07:27:43 22.9 18 25.3
003C48CD 2019-03-02 06:55:06 22.9 17 25.3
003C48CD 2019-03-02 06:22:29 23.1 17 25.3
003C48CD 2019-03-02 05:49:52 23.1 17 25.4
003C48CD 2019-03-02 05:17:15 23.2 17 25.4
003C48CD 2019-03-02 04:44:36 23.4 16 25.3
003C48CD 2019-03-02 04:11:56 23.6 16 25.3
003C48CD 2019-03-02 03:39:18 23.8 15 25.3
003C48CD 2019-03-02 03:06:39 23.9 15 24.9
003C48CD 2019-03-02 02:34:00 23.9 15 24.9
003C48CD 2019-03-02 02:01:21 24 15 24.8
003C48CD 2019-03-02 01:28:41 24 15 24.8
003C48CD 2019-03-02 00:56:04 23.9 13 24.8
003C48CD 2019-03-02 00:23:24 23.9 12 24.8
003C48CD 2019-03-01 23:50:47 23.9 11 24.7
003C48CD 2019-03-01 23:18:11 23.9 11 24.8
003C48CD 2019-03-01 22:45:38 23.9 11 24.8
003C48CD 2019-03-01 22:13:02 23.9 11 24.8
003C48CD 2019-03-01 21:40:22 23.9 11 24.7
003C48CD 2019-03-01 21:07:42 24 11 24.2
003C48CD 2019-03-01 20:35:04 24.1 11 24.1
003C48CD 2019-03-01 20:02:24 24.2 12 24.1
003C48CD 2019-03-01 19:29:45 24 13 24.2
003C48CD 2019-03-01 18:57:07 23.1 11 24.2
003C48CD 2019-03-01 18:24:27 22.7 10 24.2
003C48CD 2019-03-01 17:51:47 22.5 10 24.2
003C48CD 2019-03-01 17:19:08 22.5 10 24.3
003C48CD 2019-03-01 16:46:27 22.5 10 24.4
003C48CD 2019-03-01 16:13:47 22.5 10 24.4
003C48CD 2019-03-01 15:40:34 22.5 11 24.5
003C48CD 2019-03-01 15:07:54 22.5 11 24.9
003C48CD 2019-03-01 14:35:12 22.6 11 24.9
003C48CD 2019-03-01 14:02:31 22.6 11 25
003C48CD 2019-03-01 13:29:48 22.6 11 25
003C48CD 2019-03-01 12:57:07 22.6 11 25
003C48CD 2019-03-01 12:24:25 22.6 12 25.1
003C48CD 2019-03-01 11:51:44 22.6 12 25.1
003C48CD 2019-03-01 11:19:02 22.6 13 25.2
003C48CD 2019-03-01 10:46:21 22.5 14 25.2
003C48CD 2019-03-01 10:13:40 22.6 15 25.2
003C48CD 2019-03-01 09:41:01 22.6 18 25.2
003C48CD 2019-03-01 09:08:21 22.5 13 25.2
003C48CD 2019-03-01 08:35:42 22.5 13 25.3
003C48CD 2019-03-01 08:03:01 22.5 13 25.3
003C48CD 2019-03-01 07:30:19 22.5 13 25.4
003C48CD 2019-03-01 06:57:38 22.5 14 25.3
003C48CD 2019-03-01 06:24:56 22.5 14 25.3
003C48CD 2019-03-01 05:52:13 22.5 14 25.4
003C48CD 2019-03-01 05:19:30 22.5 14 25.4
003C48CD 2019-03-01 04:46:47 22.5 14 25.3
003C48CD 2019-03-01 04:14:06 22.6 15 25.4
003C48CD 2019-03-01 03:41:23 22.6 15 25.3
003C48CD 2019-03-01 03:08:40 22.7 15 25.4
003C48CD 2019-03-01 02:36:01 22.8 14 25.3
003C48CD 2019-03-01 02:03:23 23.1 14 24.8
003C48CD 2019-03-01 01:30:46 23.1 13 24.8
003C48CD 2019-03-01 00:58:06 23.2 13 24.8
003C48CD 2019-03-01 00:25:23 23.1 14 24.7
003C48CD 2019-02-28 23:52:45 23.1 14 24.8
003C48CD 2019-02-28 23:20:06 23 15 25.1
003C48CD 2019-02-28 22:47:27 23 16 25.1
003C48CD 2019-02-28 22:14:49 22.9 16 25.1
003C48CD 2019-02-28 21:42:08 22.8 17 25.1
003C48CD 2019-02-28 21:09:25 22.7 18 25.1
003C48CD 2019-02-28 20:36:46 22.6 18 25
003C48CD 2019-02-28 20:04:03 22.4 19 25.1
003C48CD 2019-02-28 19:31:25 22.3 20 25.2
003C48CD 2019-02-28 18:58:42 22.1 20 25.1
003C48CD 2019-02-28 18:26:00 22.1 21 25.1
003C48CD 2019-02-28 17:53:18 22.1 22 25.1
003C48CD 2019-02-28 17:20:37 22.1 23 25.1
003C48CD 2019-02-28 16:47:58 22.1 24 25.2
003C48CD 2019-02-28 16:15:22 22.2 24 25.2
003C48CD 2019-02-28 15:42:40 22.1 24 25.1
003C48CD 2019-02-28 15:10:01 22.2 24 25.2
003C48CD 2019-02-28 14:37:23 22.2 24 25.1
003C48CD 2019-02-28 14:04:45 22.2 24 25
003C48CD 2019-02-28 13:32:08 22.2 24 25.1
003C48CD 2019-02-28 12:59:32 22.3 24 25.3
003C48CD 2019-02-28 12:26:22 22.3 23 25.6
003C48CD 2019-02-28 11:53:42 22.4 23 25.5
003C48CD 2019-02-28 11:21:01 22.5 23 25.6
003C48CD 2019-02-28 10:48:23 22.6 24 25.7
003C48CD 2019-02-28 10:15:45 22.7 26 25.3
003C48CD 2019-02-28 09:43:09 22.6 29 25.5
003C48CD 2019-02-28 09:10:33 22.3 28 25.4
003C48CD 2019-02-28 08:37:54 22.2 23 25.5
003C48CD 2019-02-28 08:05:14 22.2 23 25.5
003C48CD 2019-02-28 07:32:42 22.3 23 25.5
003C48CD 2019-02-28 06:59:59 22.3 22 25.5
003C48CD 2019-02-28 06:27:22 22.3 22 25.6
003C48CD 2019-02-28 05:54:42 22.3 22 25.6
003C48CD 2019-02-28 05:22:03 22.3 22 25.6
003C48CD 2019-02-28 04:49:24 22.4 22 25.6
003C48CD 2019-02-28 04:16:47 22.4 22 25.6
003C48CD 2019-02-28 03:44:07 22.4 22 25.5
003C48CD 2019-02-28 03:11:27 22.5 21 25.5
003C48CD 2019-02-28 02:38:48 22.5 21 25.5
003C48CD 2019-02-28 02:06:11 22.6 20 25.4
003C48CD 2019-02-28 01:33:29 22.7 20 25.4
003C48CD 2019-02-28 01:00:48 22.9 20 25.4
003C48CD 2019-02-28 00:28:09 23.1 20 25.4
003C48CD 2019-02-27 23:55:29 23.2 20 25.4
003C48CD 2019-02-27 23:22:51 23.1 19 25
003C48CD 2019-02-27 22:50:14 23.1 20 25
003C48CD 2019-02-27 22:17:32 23 20 25.1
003C48CD 2019-02-27 21:44:51 23 20 25.1
003C48CD 2019-02-27 21:12:10 23 20 25
003C48CD 2019-02-27 20:39:31 22.9 21 25
003C48CD 2019-02-27 20:06:50 22.9 21 24.9
003C48CD 2019-02-27 19:34:11 22.8 22 24.9
003C48CD 2019-02-27 19:01:30 22.6 22 24.9
003C48CD 2019-02-27 18:28:47 22.4 22 24.8
003C48CD 2019-02-27 17:56:08 22.2 21 24.8
003C48CD 2019-02-27 17:23:29 22.2 22 24.8
003C48CD 2019-02-27 16:50:50 22.3 22 24.7
003C48CD 2019-02-27 16:18:10 22.3 22 24.8
003C48CD 2019-02-27 15:45:28 22.3 23 24.7
003C48CD 2019-02-27 15:12:44 22.4 23 24.7
003C48CD 2019-02-27 14:40:02 22.4 24 24.6
003C48CD 2019-02-27 14:07:22 22.4 24 24.7
003C48CD 2019-02-27 13:34:42 22.4 24 24.7
003C48CD 2019-02-27 13:02:00 22.5 24 24.7
003C48CD 2019-02-27 12:29:21 22.5 25 24.7
003C48CD 2019-02-27 11:56:42 22.6 25 24.9
003C48CD 2019-02-27 11:24:01 22.7 26 24.9
003C48CD 2019-02-27 10:51:20 22.9 28 24.9
003C48CD 2019-02-27 10:18:38 22.9 30 24.9
003C48CD 2019-02-27 09:45:57 22.6 25 24.8
003C48CD 2019-02-27 09:12:43 22.5 25 25
003C48CD 2019-02-27 08:40:02 22.5 25 24.9
003C48CD 2019-02-27 08:07:22 22.6 25 24.9
003C48CD 2019-02-27 07:34:41 22.6 25 24.9
003C48CD 2019-02-27 07:02:03 22.6 25 24.9
003C48CD 2019-02-27 06:29:24 22.6 25 24.8
003C48CD 2019-02-27 05:56:45 22.7 25 24.9
003C48CD 2019-02-27 05:24:03 22.7 24 25.1
003C48CD 2019-02-27 04:51:23 22.7 24 25.1
003C48CD 2019-02-27 04:18:43 22.8 24 25.1
003C48CD 2019-02-27 03:46:01 22.8 24 25.3
003C48CD 2019-02-27 03:13:20 22.9 24 25.1
003C48CD 2019-02-27 02:40:41 22.9 23 25.1
003C48CD 2019-02-27 02:08:01 23.1 23 25.1
003C48CD 2019-02-27 01:35:22 23.2 23 25.1
003C48CD 2019-02-27 01:02:39 23.4 24 25.1
003C48CD 2019-02-27 00:29:57 23.5 23 25
003C48CD 2019-02-26 23:57:15 23.5 24 24.9
003C48CD 2019-02-26 23:24:39 23.4 24 24.9
003C48CD 2019-02-26 22:52:01 23.4 24 24.9
003C48CD 2019-02-26 22:19:20 23.4 24 24.7
003C48CD 2019-02-26 21:46:38 23.3 24 24.7
003C48CD 2019-02-26 21:13:55 23.4 24 24.6
003C48CD 2019-02-26 20:41:16 23.3 23 24.7
003C48CD 2019-02-26 20:08:35 23.4 23 24.6
003C48CD 2019-02-26 19:35:56 23.2 24 24.4
003C48CD 2019-02-26 19:03:15 22.7 24 24.5
003C48CD 2019-02-26 18:30:36 22.2 23 24.5
003C48CD 2019-02-26 17:57:58 22.3 23 24.5
003C48CD 2019-02-26 17:25:18 22.2 23 24.5
003C48CD 2019-02-26 16:52:37 22.3 23 24.5
003C48CD 2019-02-26 16:19:55 22.3 23 24.4
003C48CD 2019-02-26 15:47:15 22.3 23 24.3
003C48CD 2019-02-26 15:14:37 22.3 23 24.3
003C48CD 2019-02-26 14:41:58 22.3 22 24.4
003C48CD 2019-02-26 14:09:19 22.3 23 24.2
003C48CD 2019-02-26 13:36:40 22.3 23 24.2
003C48CD 2019-02-26 13:03:58 22.4 23 24.2
003C48CD 2019-02-26 12:31:16 22.4 23 24.2
003C48CD 2019-02-26 11:58:35 22.5 24 24.2
003C48CD 2019-02-26 11:25:57 22.5 24 24.3
003C48CD 2019-02-26 10:53:19 22.6 25 24.3
003C48CD 2019-02-26 10:20:37 22.6 26 24.3
003C48CD 2019-02-26 09:47:57 22.7 28 24.3
003C48CD 2019-02-26 09:15:16 22.5 25 24.2
003C48CD 2019-02-26 08:42:36 22.5 24 24.8
003C48CD 2019-02-26 08:09:55 22.5 24 24.8
003C48CD 2019-02-26 07:37:14 22.6 25 24.8
003C48CD 2019-02-26 07:04:36 22.6 25 24.8
003C48CD 2019-02-26 06:31:57 22.6 25 24.8
003C48CD 2019-02-26 05:58:47 22.6 25 24.8
003C48CD 2019-02-26 05:26:08 22.7 25 24.7
003C48CD 2019-02-26 04:53:32 22.7 26 24.6
003C48CD 2019-02-26 04:20:50 22.7 25 24.7
003C48CD 2019-02-26 03:48:08 22.8 25 24.8
003C48CD 2019-02-26 03:15:27 22.8 25 25
003C48CD 2019-02-26 02:42:47 22.9 24 25
003C48CD 2019-02-26 02:10:08 23 24 24.9
003C48CD 2019-02-26 01:37:27 23.1 23 24.9
003C48CD 2019-02-26 01:04:46 23.2 23 24.9
003C48CD 2019-02-26 00:32:05 23.3 22 24.9
003C48CD 2019-02-25 23:59:26 23.5 21 24.8
003C48CD 2019-02-25 23:26:50 23.7 21 24.8
003C48CD 2019-02-25 22:54:13 23.8 21 24.8
003C48CD 2019-02-25 22:21:34 23.9 21 24.7
003C48CD 2019-02-25 21:48:55 24.2 21 24.7
003C48CD 2019-02-25 21:16:18 24.4 22 24.7
003C48CD 2019-02-25 20:43:39 24.1 22 24.8
003C48CD 2019-02-25 20:11:00 23.3 21 24.9
003C48CD 2019-02-25 19:38:22 23.4 21 24.4
003C48CD 2019-02-25 19:05:45 22.5 22 24.3
003C48CD 2019-02-25 18:33:05 22.2 21 24.3
003C48CD 2019-02-25 18:00:26 22.1 20 24.2
003C48CD 2019-02-25 17:27:45 22.1 20 24.4
003C48CD 2019-02-25 16:55:04 22.2 20 24.4
003C48CD 2019-02-25 16:22:24 22.2 20 24.5
003C48CD 2019-02-25 15:49:47 22.2 20 24.6
003C48CD 2019-02-25 15:17:07 22.2 20 24.6
003C48CD 2019-02-25 14:44:28 22.2 20 24.4
003C48CD 2019-02-25 14:11:49 22.3 20 24.3
003C48CD 2019-02-25 13:39:06 22.3 20 24.1
003C48CD 2019-02-25 13:06:26 22.4 20 24.2
003C48CD 2019-02-25 12:33:45 22.4 20 24.4
003C48CD 2019-02-25 12:01:06 22.4 21 24.3
003C48CD 2019-02-25 11:28:25 22.4 21 24.5
003C48CD 2019-02-25 10:55:45 22.5 22 24.5
003C48CD 2019-02-25 10:23:08 22.5 23 24.6
003C48CD 2019-02-25 09:50:28 22.6 24 24.6
003C48CD 2019-02-25 09:17:49 22.7 27 24.7
003C48CD 2019-02-25 08:45:10 22.6 24 24.7
003C48CD 2019-02-25 08:12:31 22.6 23 24.6
003C48CD 2019-02-25 07:39:52 22.6 24 24.5
003C48CD 2019-02-25 07:07:12 22.6 24 24.5
003C48CD 2019-02-25 06:34:30 22.7 24 24.5
003C48CD 2019-02-25 06:01:51 22.7 24 24.5
003C48CD 2019-02-25 05:29:10 22.8 24 24.5
003C48CD 2019-02-25 04:56:30 22.9 24 24.4
003C48CD 2019-02-25 04:23:50 23.1 24 24.4
003C48CD 2019-02-25 03:51:09 23.3 23 24.4
003C48CD 2019-02-25 03:18:30 23.5 23 24.4
003C48CD 2019-02-25 02:45:20 23.6 24 24.6
003C48CD 2019-02-25 02:12:41 23.6 25 24.6
003C48CD 2019-02-25 01:40:01 23.6 29 24.6
003C48CD 2019-02-25 01:07:21 23.6 31 24.6
003C48CD 2019-02-25 00:34:43 23.7 33 24.4
003C48CD 2019-02-25 00:02:03 23.7 34 24.5
003C48CD 2019-02-24 23:29:26 23.7 31 24.5
003C48CD 2019-02-24 22:56:45 23.6 28 24.6
003C48CD 2019-02-24 22:24:05 23.6 23 24.7
003C48CD 2019-02-24 21:51:25 23.6 24 24.6
003C48CD 2019-02-24 21:18:46 23.6 25 24.5
003C48CD 2019-02-24 20:46:08 23.5 24 24.5
003C48CD 2019-02-24 20:13:30 23.6 25 24.6
003C48CD 2019-02-24 19:40:53 23.6 25 24.5
003C48CD 2019-02-24 19:08:16 23.6 25 24.6
003C48CD 2019-02-24 18:35:37 23.6 26 24.6
003C48CD 2019-02-24 18:02:58 23.7 27 24.8
003C48CD 2019-02-24 17:30:20 23.6 28 24.8
003C48CD 2019-02-24 16:57:44 23.6 27 24.9
003C48CD 2019-02-24 16:25:05 23.5 28 24.8
003C48CD 2019-02-24 15:52:25 23.5 28 24.7
003C48CD 2019-02-24 15:19:47 23.4 29 24.8
003C48CD 2019-02-24 14:47:10 23.5 29 24.8
003C48CD 2019-02-24 14:14:31 23.4 25 24.8
003C48CD 2019-02-24 13:41:53 23.3 25 24.8
003C48CD 2019-02-24 13:09:14 23.1 25 24.6
003C48CD 2019-02-24 12:36:34 22.9 25 24.6
003C48CD 2019-02-24 12:03:54 22.7 25 24.5
003C48CD 2019-02-24 11:31:13 22.7 25 25
003C48CD 2019-02-24 10:58:35 22.8 25 25
003C48CD 2019-02-24 10:25:56 22.8 24 24.8
003C48CD 2019-02-24 09:53:17 22.8 24 24.9
003C48CD 2019-02-24 09:20:36 22.8 24 24.8
003C48CD 2019-02-24 08:47:59 22.9 24 24.7
003C48CD 2019-02-24 08:15:21 22.9 24 24.9
003C48CD 2019-02-24 07:42:40 23 24 24.9
003C48CD 2019-02-24 07:09:58 23 24 25
003C48CD 2019-02-24 06:37:18 23.1 24 24.8
003C48CD 2019-02-24 06:04:39 23.2 23 24.9
003C48CD 2019-02-24 05:32:01 23.3 23 24.9
003C48CD 2019-02-24 04:59:22 23.5 23 24.8
003C48CD 2019-02-24 04:26:43 23.7 23 24.7
003C48CD 2019-02-24 03:54:04 23.9 23 24.7
003C48CD 2019-02-24 03:21:25 23.8 23 24.8
003C48CD 2019-02-24 02:48:45 23.8 23 24.8
003C48CD 2019-02-24 02:16:08 23.8 23 24.8
003C48CD 2019-02-24 01:43:30 23.8 23 24.8
003C48CD 2019-02-24 01:10:51 23.8 23 24.7
003C48CD 2019-02-24 00:38:15 23.8 23 24.8
003C48CD 2019-02-24 00:05:36 23.8 23 24.8
003C48CD 2019-02-23 23:32:22 23.8 23 24.8
003C48CD 2019-02-23 22:59:41 23.8 24 24.9
003C48CD 2019-02-23 22:27:01 23.8 23 24.5
003C48CD 2019-02-23 21:54:19 23.7 24 24.5
003C48CD 2019-02-23 21:21:39 23.7 24 24.6
003C48CD 2019-02-23 20:48:59 23.6 24 24.6
003C48CD 2019-02-23 20:16:18 23.6 23 24.6
003C48CD 2019-02-23 19:43:38 23.6 23 24.8
003C48CD 2019-02-23 19:10:58 23.5 24 25.1
003C48CD 2019-02-23 18:38:20 23.5 24 25.1
003C48CD 2019-02-23 18:05:39 23.4 24 25.1
003C48CD 2019-02-23 17:32:58 23.4 24 25.2
003C48CD 2019-02-23 17:00:19 23.4 24 25.2
003C48CD 2019-02-23 16:27:39 23.4 24 25.1
003C48CD 2019-02-23 15:54:59 23.4 23 25.3
003C48CD 2019-02-23 15:22:18 23.4 24 25.3
003C48CD 2019-02-23 14:49:37 23.4 24 25.4
003C48CD 2019-02-23 14:16:58 23.3 24 25.4
003C48CD 2019-02-23 13:44:21 23.3 23 25.4
003C48CD 2019-02-23 13:11:43 23.1 23 25.4
003C48CD 2019-02-23 12:39:06 22.9 25 25.4
003C48CD 2019-02-23 12:06:27 22.8 21 25.4
003C48CD 2019-02-23 11:33:46 22.8 20 25.5
003C48CD 2019-02-23 11:01:07 22.8 20 25.4
003C48CD 2019-02-23 10:28:30 22.9 20 25.4
003C48CD 2019-02-23 09:55:53 22.9 20 25.4
003C48CD 2019-02-23 09:23:14 22.9 20 25.4
003C48CD 2019-02-23 08:50:33 23 20 25.4
003C48CD 2019-02-23 08:17:55 23 20 25.3
003C48CD 2019-02-23 07:45:16 23.1 20 25.3
003C48CD 2019-02-23 07:12:38 23.1 20 25.2
003C48CD 2019-02-23 06:40:01 23.2 20 25.3
003C48CD 2019-02-23 06:07:19 23.2 20 25.2
003C48CD 2019-02-23 05:34:40 23.3 19 24.7
003C48CD 2019-02-23 05:02:01 23.4 19 24.7
003C48CD 2019-02-23 04:29:23 23.6 18 24.6
003C48CD 2019-02-23 03:56:45 23.9 18 24.5
003C48CD 2019-02-23 03:24:11 24 17 24.6
003C48CD 2019-02-23 02:51:38 24 17 24.6
003C48CD 2019-02-23 02:18:59 24 16 24.5
003C48CD 2019-02-23 01:46:24 24 16 24.3
003C48CD 2019-02-23 01:13:45 24 16 24.1
003C48CD 2019-02-23 00:41:06 24 15 24.1
003C48CD 2019-02-23 00:08:28 23.9 15 24.1
003C48CD 2019-02-22 23:35:49 23.9 14 24.2
003C48CD 2019-02-22 23:03:14 23.9 14 24.2
003C48CD 2019-02-22 22:30:35 23.9 13 24.2
003C48CD 2019-02-22 21:57:58 23.9 13 24.2
003C48CD 2019-02-22 21:25:19 23.9 12 24.2
003C48CD 2019-02-22 20:52:41 23.8 12 24.3
003C48CD 2019-02-22 20:19:26 23.9 12 24.4
003C48CD 2019-02-22 20:08:27 23.9 12 24.6
003C48CD 2019-02-22 19:57:28 23.9 12 24.7
003C48CD 2019-02-22 19:46:29 23.9 12 24.6
003C48CD 2019-02-22 19:35:32 23.9 12 24.5
003C48CD 2019-02-22 19:24:30 23.9 12 24.3
003C48CD 2019-02-22 19:13:35 23.9 12 24.3
003C48CD 2019-02-22 19:02:32 23.9 12 24.3
003C48CD 2019-02-22 18:51:35 23.9 11 24.5
003C48CD 2019-02-22 18:40:35 24 12 24.8
003C48CD 2019-02-22 18:29:37 24 12 24.8
003C48CD 2019-02-22 18:18:37 24 12 24.7
003C48CD 2019-02-22 18:07:38 24 12 24.9
003C48CD 2019-02-22 17:56:37 24 12 24.9
003C48CD 2019-02-22 17:45:38 24 11 24.9
003C48CD 2019-02-22 17:34:39 24 11 25.1
003C48CD 2019-02-22 17:23:39 24.1 11 25
003C48CD 2019-02-22 17:12:40 24.1 11 25
003C48CD 2019-02-22 17:01:40 24.1 11 25
003C48CD 2019-02-22 16:50:39 24.1 11 25
003C48CD 2019-02-22 16:39:39 24.1 12 25.1
003C48CD 2019-02-22 16:28:39 24.2 12 24.9
003C48CD 2019-02-22 16:17:40 24.2 12 24.8
003C48CD 2019-02-22 16:06:42 24.2 12 24.8
003C48CD 2019-02-22 15:55:43 24.1 13 24.7
003C48CD 2019-02-22 15:44:44 24.1 13 24.6
003C48CD 2019-02-22 15:33:45 24 13 24.6
003C48CD 2019-02-22 15:22:45 23.8 14 24.8
003C48CD 2019-02-22 15:11:45 23.7 14 24.9
003C48CD 2019-02-22 15:00:46 23.7 13 24.9
003C48CD 2019-02-22 14:49:46 23.7 13 24.9
003C48CD 2019-02-22 14:38:47 23.6 13 24.9
003C48CD 2019-02-22 14:27:47 23.6 11 24.9
003C48CD 2019-02-22 14:16:48 23.6 11 24.6
003C48CD 2019-02-22 14:05:50 23.6 11 24.4
003C48CD 2019-02-22 13:54:51 23.5 11 24.4
003C48CD 2019-02-22 13:43:52 23.5 11 24.2
003C48CD 2019-02-22 13:32:52 23.5 11 24.3
003C48CD 2019-02-22 13:21:53 23.4 11 24.3
003C48CD 2019-02-22 13:10:54 23.4 11 24.3
003C48CD 2019-02-22 12:59:54 23.3 11 24.2
003C48CD 2019-02-22 12:48:54 23.3 12 24.2
003C48CD 2019-02-22 12:37:54 23.2 12 24.1
003C48CD 2019-02-22 12:26:56 23.2 12 24.2
003C48CD 2019-02-22 12:15:57 23.1 12 24.1
003C48CD 2019-02-22 12:04:59 23 12 23.9
003C48CD 2019-02-22 11:54:01 22.8 12 23.9
003C48CD 2019-02-22 11:43:02 22.7 12 24
003C48CD 2019-02-22 11:32:02 22.7 12 24
003C48CD 2019-02-22 11:21:02 22.7 12 24
003C48CD 2019-02-22 11:09:29 22.6 11 24.1
003C48CD 2019-02-22 10:58:30 22.7 11 24.1
003C48CD 2019-02-22 10:47:30 22.7 11 24.1
003C48CD 2019-02-22 10:36:30 22.6 11 24.1
003C48CD 2019-02-22 10:25:31 22.7 11 24.1
003C48CD 2019-02-22 10:14:31 22.6 11 24.1
003C48CD 2019-02-22 10:03:31 22.6 10 24.2
003C48CD 2019-02-22 09:52:31 22.6 11 24.3
003C48CD 2019-02-22 09:41:31 22.6 11 24.4
003C48CD 2019-02-22 09:30:30 22.6 10 24.4
003C48CD 2019-02-22 09:19:31 22.6 11 24.6
003C48CD 2019-02-22 09:08:33 22.6 11 24.5
003C48CD 2019-02-22 08:57:34 22.6 11 24.6
003C48CD 2019-02-22 08:46:35 22.6 11 24.6
003C48CD 2019-02-22 08:35:34 22.6 11 24.6
003C48CD 2019-02-22 08:24:35 22.6 11 24.6
003C48CD 2019-02-22 08:13:36 22.6 11 24.7
003C48CD 2019-02-22 08:02:34 22.6 11 24.6
003C48CD 2019-02-22 07:51:35 22.6 11 24.6
003C48CD 2019-02-22 07:40:36 22.6 11 24.6
003C48CD 2019-02-22 07:29:37 22.6 11 24.5
003C48CD 2019-02-22 07:18:37 22.6 11 24.6
003C48CD 2019-02-22 07:07:38 22.6 11 24.6
003C48CD 2019-02-22 06:56:40 22.6 11 24.5
003C48CD 2019-02-22 06:45:40 22.6 11 24.5
003C48CD 2019-02-22 06:34:42 22.6 11 24.5
003C48CD 2019-02-22 06:23:43 22.7 11 24.4
003C48CD 2019-02-22 06:12:44 22.7 11 24.4
003C48CD 2019-02-22 06:01:44 22.7 11 24.4
003C48CD 2019-02-22 05:50:45 22.7 11 24.5
003C48CD 2019-02-22 05:39:46 22.7 11 24.5
003C48CD 2019-02-22 05:28:46 22.7 11 24.5
003C48CD 2019-02-22 05:17:46 22.7 11 24.5
003C48CD 2019-02-22 05:06:48 22.7 11 24.5
003C48CD 2019-02-22 04:55:49 22.7 11 24.4
003C48CD 2019-02-22 04:44:51 22.7 12 24.3
003C48CD 2019-02-22 04:33:52 22.7 11 24.4
003C48CD 2019-02-22 04:22:51 22.7 11 24.3
003C48CD 2019-02-22 04:11:52 22.7 11 24.2
003C48CD 2019-02-22 04:00:53 22.8 11 24.2
003C48CD 2019-02-22 03:49:53 22.8 11 24.1
003C48CD 2019-02-22 03:38:55 22.8 11 24.2
003C48CD 2019-02-22 03:27:54 22.8 11 24.1
003C48CD 2019-02-22 03:16:55 22.8 11 24.2
003C48CD 2019-02-22 03:05:55 22.9 11 24.3
003C48CD 2019-02-22 02:54:55 22.9 12 24.4
003C48CD 2019-02-22 02:43:56 22.9 12 24.4
003C48CD 2019-02-22 02:32:56 23 12 24.4
003C48CD 2019-02-22 02:21:56 23 12 24.5
003C48CD 2019-02-22 02:10:56 23 12 24.5
003C48CD 2019-02-22 01:59:24 23 12 24.6
003C48CD 2019-02-22 01:48:24 23 12 24.6
003C48CD 2019-02-22 01:37:25 23 12 24.6
003C48CD 2019-02-22 01:26:26 23 12 24.5
003C48CD 2019-02-22 01:15:27 22.9 12 24.5
003C48CD 2019-02-22 01:04:27 23 12 24.4
003C48CD 2019-02-22 00:53:27 23 12 24.4
003C48CD 2019-02-22 00:42:27 22.9 13 24.3
003C48CD 2019-02-22 00:31:27 22.9 13 24.4
003C48CD 2019-02-22 00:20:29 22.9 13 24.4
003C48CD 2019-02-22 00:09:28 22.9 14 24.4
003C48CD 2019-02-21 23:58:30 22.9 13 24.3
003C48CD 2019-02-21 23:47:32 22.9 14 24.3
003C48CD 2019-02-21 23:36:33 22.9 14 24.3
003C48CD 2019-02-21 23:25:34 22.8 13 24.4
003C48CD 2019-02-21 23:14:36 22.9 13 24.2
003C48CD 2019-02-21 23:03:36 22.8 12 24.7
003C48CD 2019-02-21 22:52:36 22.8 12 24.6
003C48CD 2019-02-21 22:41:37 22.8 12 24.7
003C48CD 2019-02-21 22:30:37 22.8 12 24.6
003C48CD 2019-02-21 22:19:40 22.8 12 24.6
003C48CD 2019-02-21 22:08:39 22.8 12 24.6
003C48CD 2019-02-21 21:57:41 22.7 12 24.5
003C48CD 2019-02-21 21:46:41 22.7 12 24.5
003C48CD 2019-02-21 21:35:43 22.7 12 24.6
003C48CD 2019-02-21 21:24:42 22.7 11 24.5
003C48CD 2019-02-21 21:13:43 22.7 11 24.5
003C48CD 2019-02-21 21:02:43 22.6 12 24.6
003C48CD 2019-02-21 20:51:43 22.6 12 24.7
003C48CD 2019-02-21 20:40:43 22.6 12 24.6
003C48CD 2019-02-21 20:29:44 22.6 12 24.8
003C48CD 2019-02-21 20:18:44 22.5 12 24.8
003C48CD 2019-02-21 20:07:43 22.5 12 24.8
003C48CD 2019-02-21 19:56:43 22.5 12 24.8
003C48CD 2019-02-21 19:45:44 22.5 12 24.8
003C48CD 2019-02-21 19:34:45 22.4 11 24.8
003C48CD 2019-02-21 19:23:47 22.4 11 24.8
003C48CD 2019-02-21 19:12:48 22.4 11 24.8
003C48CD 2019-02-21 19:01:48 22.4 11 24.8
003C48CD 2019-02-21 18:50:47 22.3 11 24.6
003C48CD 2019-02-21 18:39:48 22.3 11 24.7
003C48CD 2019-02-21 18:28:49 22.3 10 24.3
003C48CD 2019-02-21 18:17:51 22.2 10 24.8
003C48CD 2019-02-21 18:06:53 22.2 9 24.7
003C48CD 2019-02-21 17:55:55 22.3 9 24.6
003C48CD 2019-02-21 17:44:55 22.3 9 24.6
003C48CD 2019-02-21 17:33:56 22.3 9 24.5
003C48CD 2019-02-21 17:22:57 22.3 9 24.5
003C48CD 2019-02-21 17:11:58 22.3 9 24.6
003C48CD 2019-02-21 17:00:59 22.3 9 24.5
003C48CD 2019-02-21 16:49:27 22.3 9 24.7
003C48CD 2019-02-21 16:16:47 22.3 9 24.5
003C48CD 2019-02-21 15:44:09 22.3 9 24.5
003C48CD 2019-02-21 15:11:30 22.3 9 24.6
003C48CD 2019-02-21 14:38:53 22.3 9 24.5
003C48CD 2019-02-21 14:06:16 22.3 10 24.6
003C48CD 2019-02-21 13:33:39 22.3 10 24.6
003C48CD 2019-02-21 13:01:03 22.3 11 24.7
003C48CD 2019-02-21 12:28:25 22.3 11 24.8
003C48CD 2019-02-21 11:55:47 22.3 11 24.7
003C48CD 2019-02-21 11:23:10 22.4 12 24.8
003C48CD 2019-02-21 10:50:31 22.3 13 24.8
003C48CD 2019-02-21 10:17:52 22.4 15 24.7
003C48CD 2019-02-21 09:45:10 22.4 18 24.8
003C48CD 2019-02-21 09:12:32 22.3 12 24.7
003C48CD 2019-02-21 08:39:53 22.3 12 24.7
003C48CD 2019-02-21 08:07:13 22.3 12 24.3
003C48CD 2019-02-21 07:34:35 22.3 13 24.3
003C48CD 2019-02-21 07:01:54 22.3 13 24.4
003C48CD 2019-02-21 06:29:13 22.2 13 24.4
003C48CD 2019-02-21 05:56:35 22.3 13 24.5
003C48CD 2019-02-21 05:23:58 22.3 14 24.5
003C48CD 2019-02-21 04:51:22 22.3 14 24.4
003C48CD 2019-02-21 04:18:41 22.3 14 24.3
003C48CD 2019-02-21 03:46:00 22.3 14 24.3
003C48CD 2019-02-21 03:13:18 22.3 14 24.2
003C48CD 2019-02-21 02:40:39 22.4 15 24.1
003C48CD 2019-02-21 02:07:59 22.4 15 24.1
003C48CD 2019-02-21 01:35:21 22.5 15 24
003C48CD 2019-02-21 01:02:43 22.5 16 23.8
003C48CD 2019-02-21 00:30:05 22.5 15 23.8
003C48CD 2019-02-20 23:57:24 22.4 15 23.7
003C48CD 2019-02-20 23:24:45 22.4 15 23.7
003C48CD 2019-02-20 22:52:04 22.3 16 23.5
003C48CD 2019-02-20 22:19:26 22.3 17 23.6
003C48CD 2019-02-20 21:46:47 22.2 18 23.5
003C48CD 2019-02-20 21:14:07 22.1 23 23.6
003C48CD 2019-02-20 20:41:29 22 17 23.6
003C48CD 2019-02-20 20:08:48 21.9 16 23.6
003C48CD 2019-02-20 19:36:07 21.9 16 23.6
003C48CD 2019-02-20 19:03:29 21.9 15 23.6
003C48CD 2019-02-20 18:30:46 21.8 15 23.6
003C48CD 2019-02-20 17:58:04 21.8 15 23.6
003C48CD 2019-02-20 17:25:25 21.8 15 23.6
003C48CD 2019-02-20 16:52:48 21.8 15 23.6
003C48CD 2019-02-20 16:20:08 21.8 16 23.6
003C48CD 2019-02-20 15:47:27 21.9 16 23.5
003C48CD 2019-02-20 15:14:44 21.9 17 23.5
003C48CD 2019-02-20 14:42:02 21.9 17 23.6